Total_Precipitation_Accumulation
0.51 0.70 1.07 1.38 1.26 1.20 1.11 1.25 1.42 1.58 1.77 2.18 2.60 3.12 3.75 3.43 3.08 2.96 2.91 2.82 2.58 2.38 2.54 2.54 2.34 2.30 2.37 1.92 1.68 1.70 1.57 1.72 1.84 1.12 1.02 1.07 0.99 0.76 0.62 0.71 0.80 0.98 1.08
0.86 0.76 0.74 0.90 0.98 1.06 1.23 1.27 1.56 1.94 2.13 2.46 2.67 3.01 3.30 3.63 3.55 3.24 2.83 2.56 2.52 2.31 2.20 2.53 2.43 2.60 2.81 2.57 2.34 1.96 1.78 1.62 2.03 1.70 1.57 1.64 1.77 1.56 1.11 0.83 0.69 0.78 0.94
0.61 1.01 0.97 1.10 0.90 1.20 1.31 1.58 1.85 2.03 2.30 2.48 2.64 2.80 2.97 3.08 3.36 3.17 2.71 2.31 2.25 2.15 1.95 1.99 2.08 2.40 2.48 2.50 2.51 2.22 2.14 2.33 2.60 2.47 2.23 1.86 1.64 1.58 1.42 1.34 1.11 0.93 0.94
0.64 0.67 0.63 0.77 1.05 1.28 1.29 1.40 1.81 2.04 1.93 1.81 1.99 2.14 1.85 1.83 2.29 2.59 2.69 2.67 2.48 2.37 2.28 2.19 2.05 2.25 2.21 2.42 2.79 2.95 2.90 3.02 2.97 2.66 2.63 2.43 2.18 1.86 1.67 1.75 1.84 1.71 1.47
0.68 0.69 0.60 0.73 1.13 1.34 1.66 1.67 1.42 1.16 1.09 1.12 1.14 1.21 1.30 1.49 2.04 2.24 2.38 2.47 2.70 2.75 2.61 2.56 2.56 2.85 2.98 2.90 2.81 2.73 2.97 3.08 3.01 3.30 3.41 3.05 2.80 2.72 2.29 2.05 1.84 1.80 1.89
0.50 0.46 0.63 0.78 0.69 0.77 0.74 0.67 0.73 0.87 0.91 0.80 0.65 0.65 0.77 1.01 1.80 2.14 2.39 2.36 2.48 2.82 2.62 2.37 2.39 2.82 2.69 3.20 3.20 3.31 3.19 3.06 3.03 2.72 2.70 2.67 2.55 2.08 2.28 2.52 2.69 2.59 2.53
0.35 0.35 0.40 0.41 0.42 0.38 0.33 0.36 0.43 0.49 0.55 0.68 0.81 0.69 0.52 0.79 1.52 1.60 2.06 1.96 2.24 2.64 2.69 2.61 2.74 3.15 3.15 2.71 3.22 3.29 3.59 3.56 3.08 2.85 2.78 2.26 2.33 2.12 2.17 2.68 2.33 1.89 1.79
0.39 0.29 0.23 0.22 0.26 0.34 0.49 0.59 0.61 0.60 0.50 0.51 0.67 1.09 1.47 1.39 1.59 1.50 1.68 1.48 1.63 2.11 2.36 2.51 2.70 2.89 2.99 2.86 2.93 3.14 2.90 2.74 2.64 2.58 2.56 2.38 2.03 1.98 2.44 2.68 3.03 3.45 3.17
0.57 0.50 0.40 0.41 0.48 0.63 0.79 0.89 0.82 0.79 0.89 0.88 0.86 0.93 0.95 1.32 1.75 1.25 1.10 1.08 1.25 1.34 1.52 1.89 2.24 2.53 3.31 3.00 2.87 3.09 2.91 2.62 2.71 2.87 2.91 2.71 2.95 3.13 2.99 3.61 3.77 3.59 3.53
0.87 0.81 0.83 0.78 0.80 0.91 0.90 0.81 0.81 0.92 0.97 1.08 1.15 0.87 0.90 0.75 1.24 1.08 0.88 0.68 0.99 1.01 1.01 1.37 1.96 1.97 2.31 2.16 2.19 2.20 2.41 2.31 2.11 2.19 2.45 2.83 2.77 3.02 2.97 2.72 2.96 3.29 2.95
1.19 1.30 1.24 1.16 1.14 1.04 0.97 0.93 0.96 1.02 1.04 0.96 0.89 0.90 0.84 0.78 0.93 0.96 0.91 0.66 0.84 1.02 0.92 0.88 1.06 1.49 1.54 1.61 1.68 1.77 1.94 1.77 1.86 1.96 2.12 2.28 2.38 2.42 2.73 2.73 2.72 3.20 3.25
1.90 1.56 1.51 1.36 1.08 0.99 0.91 0.90 0.89 0.88 0.95 0.93 0.81 0.79 0.87 1.08 1.25 1.05 0.92 0.93 0.97 1.18 1.32 1.32 1.44 1.31 1.08 1.09 1.30 1.60 1.60 1.48 1.57 1.81 2.00 2.07 2.22 2.27 2.20 2.41 2.43 2.51 2.47
2.51 2.45 1.94 1.42 1.31 1.28 1.22 1.17 1.07 0.98 0.92 0.99 0.97 0.96 1.00 1.02 1.29 1.41 1.33 1.22 1.09 1.02 1.21 1.44 1.48 1.33 1.09 1.06 1.04 1.10 1.24 1.44 1.52 1.61 1.60 1.56 1.64 1.85 1.97 2.23 2.47 2.45 2.57
1.62 2.20 2.51 2.50 1.76 1.56 1.74 1.67 1.75 1.72 1.46 1.41 1.50 1.54 1.46 1.35 1.27 1.27 1.34 1.43 1.41 1.34 1.44 1.36 1.25 1.11 1.08 1.25 1.25 1.10 1.13 1.21 1.29 1.39 1.35 1.30 1.28 1.50 1.72 1.83 2.02 2.08 2.56
0.97 1.44 1.76 2.51 2.45 1.59 1.47 1.61 1.50 1.81 1.89 1.67 1.53 1.56 1.71 1.81 1.72 1.73 1.59 1.44 1.39 1.34 1.38 1.45 1.31 1.02 0.90 0.82 0.78 0.70 0.72 0.79 0.86 0.85 0.93 1.02 1.18 1.26 1.35 1.47 1.61 1.69 1.96
0.77 1.22 1.50 1.79 2.43 2.33 1.74 2.05 2.38 2.41 2.36 2.41 2.45 2.21 2.36 2.28 2.19 1.91 1.77 1.72 1.57 1.35 1.23 1.01 0.94 0.92 0.90 0.81 0.89 0.97 0.79 0.73 0.60 0.62 0.73 0.71 0.85 1.02 1.13 1.26 1.40 1.54 1.55
0.64 0.80 1.15 1.53 1.91 2.16 2.27 2.03 2.19 2.47 2.28 2.15 2.15 2.02 1.87 2.12 2.08 1.89 1.65 1.51 1.43 1.25 1.26 1.09 1.03 1.03 1.02 0.93 0.93 0.91 0.92 0.90 0.78 0.78 0.79 0.78 0.72 0.75 0.98 0.97 1.11 1.31 1.38
1.03 1.32 1.32 1.46 1.92 2.30 2.46 2.40 2.23 1.99 1.88 2.20 2.20 2.09 2.19 2.12 2.17 2.08 1.86 1.59 1.57 1.34 1.19 1.15 1.17 1.08 0.98 0.97 0.92 0.90 0.85 0.77 0.71 0.68 0.82 0.83 0.83 0.82 0.82 0.82 0.88 1.01 1.11
1.52 1.56 1.60 1.76 1.84 1.96 2.09 2.11 2.00 1.93 1.87 1.90 1.89 1.78 1.72 1.72 1.64 1.60 1.52 1.52 1.43 1.32 1.23 1.29 1.31 1.25 1.16 1.07 1.01 0.97 0.91 0.88 0.80 0.76 0.74 0.72 0.72 0.78 0.78 0.75 0.81 0.86 0.90
1.32 1.19 1.01 1.05 1.28 1.47 1.50 1.56 1.70 1.73 1.73 1.71 1.69 1.80 1.59 1.32 1.56 1.73 1.74 1.75 1.85 1.87 1.78 1.65 1.51 1.50 1.47 1.39 1.31 1.21 1.10 1.01 0.92 0.82 0.80 0.78 0.79 0.80 0.76 0.77 0.83 0.97 0.95
0.83 0.82 0.74 0.74 0.81 0.89 1.06 1.20 1.29 1.29 1.34 1.35 1.46 1.52 1.49 1.57 1.71 1.72 1.79 1.84 1.78 1.69 1.63 1.56 1.49 1.39 1.35 1.32 1.27 1.24 1.17 1.14 1.04 0.96 0.90 0.88 0.87 0.89 0.84 0.81 0.75 0.70 0.70
0.52 0.51 0.56 0.65 0.69 0.72 0.78 0.84 0.84 0.85 0.93 0.97 1.09 1.09 0.98 1.13 1.26 1.39 1.49 1.54 1.53 1.45 1.35 1.26 1.20 1.20 1.26 1.23 1.16 1.11 1.05 1.00 0.97 0.94 0.89 0.81 0.80 0.79 0.81 0.79 0.73 0.74 0.75
0.46 0.47 0.47 0.48 0.54 0.58 0.60 0.70 0.77 0.74 0.74 0.80 0.82 0.84 0.87 1.00 1.03 1.05 1.09 1.16 1.14 1.12 1.13 1.11 1.06 0.98 0.90 0.96 1.00 1.07 1.12 1.04 1.03 0.98 0.96 0.87 0.81 0.79 0.83 0.86 0.78 0.77 0.71
0.36 0.39 0.37 0.43 0.53 0.56 0.66 0.70 0.64 0.59 0.62 0.69 0.74 0.78 0.84 0.89 0.95 0.94 0.94 0.95 0.89 0.87 0.84 0.84 0.85 0.83 0.79 0.79 0.83 0.88 0.93 0.95 0.94 0.91 0.88 0.86 0.81 0.80 0.84 0.81 0.75 0.76 0.77
0.43 0.45 0.48 0.54 0.53 0.54 0.53 0.52 0.55 0.54 0.58 0.60 0.65 0.67 0.69 0.70 0.70 0.70 0.72 0.70 0.68 0.66 0.67 0.68 0.74 0.75 0.73 0.73 0.76 0.75 0.75 0.74 0.76 0.74 0.74 0.72 0.70 0.69 0.73 0.77 0.74 0.74 0.73
0.44 0.45 0.42 0.41 0.44 0.44 0.47 0.49 0.49 0.49 0.52 0.53 0.56 0.58 0.58 0.59 0.57 0.55 0.53 0.50 0.51 0.50 0.48 0.51 0.52 0.51 0.50 0.56 0.61 0.58 0.57 0.61 0.66 0.65 0.69 0.65 0.63 0.62 0.62 0.63 0.58 0.60 0.57